Content
SEND FEEDBACK

Daily
Averages
Monthly
Summary
Netherlands

ROTTERDAM, NETHERLANDS


Home > Europe > Netherlands
Elevation: 13 feet     Latitude: 51 57N     Longitude: 004 26E

WEATHER
 
SELECT A DAY
Number of Records: 420,984;   Date Range: 7/1/96 - 9/29/14
 
SHARE

PRINT THIS DATA

[ ← Previous Day ]
WEATHER ALMANAC - MARCH 6, 2013
[ Next Day → ]
[ °C ]   °F
Weather ElementAverageHighLow
Temperature49 °F59 °F (2:25 pm)37.4 °F (3:55 am)
Dewpoint38.4 °F44.6 °F (5:55 pm)33.8 °F (12:55 am)
Humidity66.2 %87 % (3:55 am)46 % (4:00 pm)
Barometer29.60 in29.68 in (1:00 am)29.53 in (11:55 pm)
Wind Speed5.1 mph8.1 mph (3:25 pm)
Weather ElementAverage
Visibility6.6 mi
Wind DirectionENE (77.5 °)

Weather ElementTotal
Precipitation---
Heating Degree Days16.8 (Base 65)
Averaged from 55 records on March 6, 2013
WEATHER CONDITIONS BREAKOUT
WIND DIRECTION BREAKOUT
WEATHER BY HOUR - MARCH 6, 2013
[ °C ]   °F
Local TimeTemperatureDewpointHumidityBarometerVisibilityWind DirectionWind SpeedGust SpeedPrecipitationEventsConditions
12:55 AM44.6 °F33.8 °F66 %29.65 in6.2 miSSE (160°)4.6 mph
1:00 AM45.0 °F35.0 °F56 %29.68 in11.0 miSSE (160°)4.5 mphPartly Cloudy
1:25 AM44.6 °F35.6 °F71 %29.65 in6.2 miVariable1.2 mph
1:55 AM42.8 °F35.6 °F76 %29.65 in6.2 miESE (120°)1.2 mph
2:25 AM39.2 °F33.8 °F81 %29.65 in6.2 miESE (110°)2.3 mph
2:55 AM39.2 °F33.8 °F81 %29.65 in6.2 miESE (120°)2.3 mph
3:25 AM39.2 °F33.8 °F81 %29.62 in6.2 miNE (50°)2.3 mph
3:55 AM37.4 °F33.8 °F87 %29.62 in6.2 miENE (70°)4.6 mph
4:00 AM38.0 °F34.0 °F78 %29.64 in8.0 miEast (80°)4.5 mphMostly Cloudy
4:25 AM41.0 °F35.6 °F81 %29.62 in6.2 miEast (80°)4.6 mph
4:55 AM42.8 °F35.6 °F76 %29.62 in6.2 miENE (60°)2.3 mph
5:25 AM41.0 °F35.6 °F81 %29.62 in6.2 miENE (70°)3.5 mph
5:55 AM42.8 °F35.6 °F76 %29.62 in6.2 miENE (70°)4.6 mph
6:25 AM41.0 °F37.4 °F87 %29.62 in6.2 miENE (70°)4.6 mph
6:55 AM41.0 °F35.6 °F81 %29.62 in6.2 miEast (90°)3.5 mph
7:00 AM42.0 °F37.0 °F75 %29.63 in7.0 miEast (90°)4.5 mphPartly Cloudy
7:25 AM44.6 °F35.6 °F71 %29.62 in6.2 miEast (90°)4.6 mph
7:55 AM44.6 °F35.6 °F71 %29.62 in6.2 miEast (100°)5.8 mph
8:25 AM44.6 °F35.6 °F71 %29.62 in6.2 miEast (90°)4.6 mph
8:55 AM44.6 °F37.4 °F76 %29.62 in6.2 miENE (70°)4.6 mph
9:25 AM46.4 °F37.4 °F71 %29.62 in6.2 miEast (100°)5.8 mph
9:55 AM48.2 °F39.2 °F71 %29.62 in6.2 miEast (90°)5.8 mph
10:00 AM49.0 °F38.0 °F56 %29.64 in7.0 miEast (90°)4.5 mphOvercast
10:25 AM50.0 °F37.4 °F62 %29.62 in6.2 miVariable2.3 mph
10:55 AM51.8 °F39.2 °F62 %29.62 in6.2 miEast (100°)3.5 mph
11:25 AM51.8 °F39.2 °F62 %29.62 in4.3 miEast (100°)3.5 mph
11:55 AM53.6 °F39.2 °F58 %29.62 in6.2 miEast (100°)3.5 mph
12:25 PM53.6 °F41.0 °F62 %29.62 in6.2 miEast (90°)3.5 mph
12:55 PM55.4 °F41.0 °F58 %29.59 in6.2 miEast (80°)3.5 mph
1:00 PM55.0 °F41.0 °F48 %29.62 in7.0 miEast (80°)4.5 mphPartly Cloudy
1:25 PM57.2 °F41.0 °F55 %29.59 in6.2 miEast (90°)4.6 mph
1:55 PM57.2 °F42.8 °F59 %29.59 in6.2 miENE (60°)5.8 mph
2:25 PM59.0 °F42.8 °F55 %29.59 in6.2 miENE (60°)6.9 mph
2:55 PM59.0 °F42.8 °F55 %29.59 in6.2 miENE (70°)5.8 mph
3:25 PM57.2 °F41.0 °F55 %29.59 in6.2 miNE (50°)8.1 mph
3:55 PM57.2 °F42.8 °F59 %29.56 in6.2 miENE (60°)5.8 mph
4:00 PM57.0 °F42.0 °F46 %29.59 in11.0 miENE (60°)6.7 mphOvercast
4:25 PM57.2 °F41.0 °F55 %29.56 in6.2 miENE (70°)5.8 mph
4:55 PM57.2 °F41.0 °F55 %29.56 in6.2 miENE (70°)6.9 mph
5:25 PM55.4 °F42.8 °F63 %29.56 in6.2 miENE (60°)6.9 mph
5:55 PM55.4 °F44.6 °F67 %29.56 in6.2 miNE (50°)5.8 mph
6:25 PM51.8 °F44.6 °F76 %29.56 in6.2 miENE (60°)5.8 mph
6:55 PM51.8 °F42.8 °F71 %29.56 in6.2 miENE (60°)4.6 mph
7:00 PM52.0 °F43.0 °F63 %29.58 in7.0 miENE (60°)4.5 mphPartly Cloudy
7:25 PM55.4 °F41.0 °F58 %29.56 in6.2 miEast (80°)8.1 mph
7:55 PM53.6 °F39.2 °F58 %29.56 in6.2 miEast (90°)6.9 mph
8:25 PM53.6 °F37.4 °F54 %29.56 in6.2 miEast (90°)4.6 mph
8:55 PM51.8 °F37.4 °F58 %29.56 in6.2 miENE (60°)6.9 mph
9:25 PM50.0 °F37.4 °F62 %29.56 in6.2 miENE (70°)6.9 mph
9:55 PM50.0 °F37.4 °F62 %29.56 in6.2 miENE (70°)8.1 mph
10:00 PM50.0 °F38.0 °F52 %29.58 in13.0 miENE (70°)6.7 mphOvercast
10:25 PM50.0 °F37.4 °F62 %29.56 in6.2 miENE (60°)8.1 mph
10:55 PM48.2 °F37.4 °F66 %29.56 in6.2 miENE (70°)8.1 mph
11:25 PM46.4 °F37.4 °F71 %29.56 in6.2 miENE (70°)8.1 mph
11:55 PM46.4 °F37.4 °F71 %29.53 in6.2 miENE (70°)8.1 mph
Hourly data recorded from EHRD, located miles away from Rotterdam, Netherlands







STORIES FROM OUR PARTNERS